DateTimeUTC,F1_A11,F1_S11,BsB_S11,BsG_S11,BsR_S11,BbsB_S11,BbsG_S11,BbsR_S11,BaB_A11,BaG_A11,BaR_A11,Tu_S11,T_S11,Uu_S11,U_S11,P_S11,T1_A11
2021-02-11T07:00:00Z,00000200,21000000,,,,,,,-000.09,-000.17,0000.19,15.2,22.7,,00.0,0647.6,30.9
2021-02-11T07:01:00Z,00000200,21000000,,,,,,,-000.33,-000.20,-000.38,15.2,22.8,,00.0,0647.6,30.9
2021-02-11T07:02:00Z,00000200,21000000,,,,,,,0000.15,0000.21,0000.00,15.2,22.8,,00.0,0647.6,30.9
2021-02-11T07:03:00Z,00000200,61000000,,,,,,,0000.16,0000.22,0000.13,15.2,22.8,,00.0,0647.6,30.9
2021-02-11T07:04:00Z,00000200,41000000,0000.52,0000.12,0000.37,-000.12,0000.02,-000.08,0000.24,0000.21,0000.40,15.2,22.5,,00.0,0648.5,30.9
2021-02-11T07:05:00Z,00000200,01000000,0000.46,0000.20,0000.14,-000.00,0000.19,0000.15,0000.26,-000.29,0000.07,15.2,22.4,,00.0,0648.6,30.8
2021-02-11T07:06:00Z,00000200,01000000,0000.31,0000.55,0000.09,-000.10,0000.20,-000.23,0000.09,0000.51,-000.03,15.2,22.4,,00.0,0648.6,30.8
2021-02-11T07:07:00Z,00000200,01000000,0000.24,0000.12,0000.32,0000.14,0000.22,0000.14,0000.57,0000.22,0000.26,15.2,22.4,,00.0,0648.5,30.8
2021-02-11T07:08:00Z,00000200,01000000,0000.93,0000.27,0000.57,0000.29,0000.03,0000.03,0000.10,0000.26,0000.14,15.3,22.4,,00.0,0648.5,30.8
2021-02-11T07:09:00Z,00000200,01000000,0000.31,0000.08,0000.45,-000.06,0000.28,-000.05,0000.35,0000.18,0000.24,15.3,22.4,,00.0,0648.5,30.8
2021-02-11T07:10:00Z,00000200,01000000,0000.52,0000.41,0000.25,0000.31,0000.41,0000.18,0000.55,0000.37,0000.19,15.4,22.4,,00.0,0648.6,30.8
2021-02-11T07:11:00Z,00000200,01000000,0000.63,0000.52,0000.16,0000.28,-000.18,0000.11,-000.16,0000.21,0000.07,15.4,22.5,,00.0,0648.6,30.9
2021-02-11T07:12:00Z,00000200,01000000,0000.69,0000.10,0000.47,-000.10,-000.04,-000.05,0000.19,0000.10,0000.13,15.5,22.5,,00.0,0648.6,30.9
2021-02-11T07:13:00Z,00000200,01000000,0000.63,0000.07,0000.21,-000.11,0000.13,-000.12,0000.01,-000.35,0000.02,15.5,22.5,,00.0,0648.6,30.9
2021-02-11T07:14:00Z,00000200,01000000,0000.45,0000.16,0000.08,-000.35,-000.01,0000.23,0000.02,0000.40,0000.26,15.5,22.5,,00.0,0648.6,30.9
2021-02-11T07:15:00Z,00000200,01000000,0000.07,0000.39,-000.06,-000.21,0000.08,-000.01,0000.04,0000.30,-000.06,15.5,22.5,,00.0,0648.6,30.9
2021-02-11T07:16:00Z,00000200,01000000,-000.39,0000.23,0000.06,-000.17,0000.04,-000.07,0000.24,-000.08,-000.01,15.5,22.5,,00.0,0648.6,30.9
2021-02-11T07:17:00Z,00000200,01000000,0000.38,0000.13,0000.18,0000.05,0000.26,-000.22,-000.18,0000.06,0000.08,15.4,22.4,,00.0,0648.6,30.9
2021-02-11T07:18:00Z,00000200,01000000,0000.58,-000.07,0000.19,0000.19,-000.04,-000.12,0000.45,0000.25,0000.18,15.3,22.4,,00.0,0648.7,30.9
2021-02-11T07:19:00Z,00000200,01000000,0000.99,0000.41,0000.05,-000.27,0000.22,0000.03,0000.12,-000.04,-000.09,15.3,22.4,,00.0,0648.7,30.8
2021-02-11T07:20:00Z,00000200,01000000,0000.57,0000.23,0000.47,-000.17,0000.07,-000.10,0000.39,-000.05,0000.21,15.2,22.4,,00.0,0648.7,30.8
2021-02-11T07:21:00Z,00000200,01000000,0000.48,-000.06,0000.22,0000.20,-000.17,0000.05,0000.19,0000.30,0000.38,15.2,22.3,,00.0,0648.6,30.8
2021-02-11T07:22:00Z,00000200,01000000,0000.18,0000.13,0000.20,0000.31,-000.08,-000.16,0000.20,0000.34,0000.06,15.2,22.3,,00.0,0648.7,30.8
2021-02-11T07:23:00Z,00000200,01000000,0000.69,0000.28,0000.13,0000.02,0000.25,-000.10,0000.36,0000.48,0000.21,15.3,22.3,,00.0,0648.7,30.8
2021-02-11T07:24:00Z,00000200,01000000,0000.43,0000.36,0000.22,0000.35,0000.06,-000.16,0000.02,0000.23,0000.06,15.3,22.4,,00.0,0648.7,30.8
2021-02-11T07:25:00Z,00000200,01000000,0000.49,0000.11,0000.14,0000.30,0000.19,-000.00,0000.39,0000.05,0000.40,15.4,22.4,,00.0,0648.7,30.8
2021-02-11T07:26:00Z,00000200,01000000,0000.99,0000.10,0000.28,-000.37,-000.02,-000.11,0000.32,-000.03,0000.23,15.4,22.4,,00.0,0648.7,30.9
2021-02-11T07:27:00Z,00000200,01000000,0000.40,0000.19,0000.36,-000.68,0000.18,-000.08,0000.07,0000.52,0000.13,15.5,22.4,,00.0,0648.7,30.9
2021-02-11T07:28:00Z,00000200,01000000,0000.97,0000.39,0000.30,0000.04,0000.19,0000.06,0000.42,0000.07,-000.07,15.5,22.5,,00.0,0648.7,30.9
2021-02-11T07:29:00Z,00000200,01000000,0000.50,0000.08,0000.14,0000.29,0000.03,0000.02,0000.26,0000.59,0000.28,15.6,22.5,,00.0,0648.7,30.9
2021-02-11T07:30:00Z,00000200,01000000,0000.32,0000.02,0000.42,-000.44,-000.14,-000.07,-000.03,0000.38,0000.31,15.6,22.5,,00.0,0648.7,30.9
2021-02-11T07:31:00Z,00000200,01000000,0000.52,-000.04,0000.45,0000.29,0000.12,-000.08,0000.18,-000.06,0000.17,15.7,22.5,,00.0,0648.7,30.9
2021-02-11T07:32:00Z,00000200,01000000,-000.01,0000.32,0000.30,0000.37,0000.08,0000.21,0000.23,0000.14,-000.12,15.7,22.6,,00.0,0648.7,30.9
2021-02-11T07:33:00Z,00000200,01000000,0000.42,-000.08,-000.00,-000.08,0000.09,0000.18,-000.15,-000.25,-000.22,15.7,22.5,,00.0,0648.7,30.9
2021-02-11T07:34:00Z,00000200,01000000,0000.50,0000.10,0000.08,-000.04,0000.08,0000.14,0000.15,0000.18,0000.25,15.6,22.5,,00.0,0648.7,30.9
2021-02-11T07:35:00Z,00000200,01000000,0000.41,0000.32,0000.23,0000.23,0000.10,0000.04,0000.13,-000.05,0000.04,15.5,22.5,,00.0,0648.7,30.9
2021-02-11T07:36:00Z,00000200,01000000,0000.35,0000.17,0000.35,0000.10,-000.06,-000.05,0000.52,0000.41,0000.34,15.5,22.5,,00.0,0648.7,30.9
2021-02-11T07:37:00Z,00000200,01000000,0000.28,0000.17,0000.07,-000.43,0000.35,-000.06,0000.04,0000.42,0000.35,15.5,22.5,,00.0,0648.7,30.9
2021-02-11T07:38:00Z,00000200,01000000,0000.39,0000.12,0000.34,-000.02,0000.25,0000.18,0000.63,0000.25,0000.33,15.5,22.5,,00.0,0648.7,30.9
2021-02-11T07:39:00Z,00000200,01000000,0000.76,0000.17,0000.40,-000.17,0000.31,0000.16,0000.10,0000.01,-000.00,15.6,22.5,,00.0,0648.7,30.9
2021-02-11T07:40:00Z,00000200,01000000,0000.61,0000.06,0000.57,0000.51,0000.11,0000.12,0000.13,0000.13,0000.04,15.6,22.5,,00.0,0648.7,30.9
2021-02-11T07:41:00Z,00000200,01000000,0000.42,0000.11,0000.22,0000.19,-000.12,0000.00,0000.54,0000.38,-000.00,15.7,22.6,,00.0,0648.7,30.9
2021-02-11T07:42:00Z,00000200,01000000,0000.19,0000.40,0000.34,-000.01,0000.09,-000.05,-000.03,0000.55,0000.10,15.8,22.6,,00.0,0648.8,30.9
2021-02-11T07:43:00Z,00000200,01000000,0001.29,0000.18,0000.28,0000.28,0000.06,-000.07,0000.21,-000.18,0000.33,15.8,22.6,,00.0,0648.7,30.9
2021-02-11T07:44:00Z,00000200,01000000,0000.77,0000.33,0000.26,-000.41,0000.21,-000.10,-000.24,-000.30,-000.16,15.9,22.7,,00.0,0648.7,30.9
2021-02-11T07:45:00Z,00000200,01000000,0000.72,0000.10,0000.34,0000.48,-000.06,0000.27,0000.41,0000.42,0000.28,15.8,22.6,,00.0,0648.7,30.9
2021-02-11T07:46:00Z,00000200,01000000,0001.19,0000.46,0000.16,0000.26,-000.08,0000.01,0000.15,0000.29,0000.23,15.8,22.6,,00.0,0648.7,30.9
2021-02-11T07:47:00Z,00000200,01000000,0000.47,0000.41,0000.26,0000.44,0000.04,-000.04,0000.03,0000.02,-000.40,15.7,22.6,,00.0,0648.7,30.9
2021-02-11T07:48:00Z,00000200,01000000,0000.16,0000.73,0000.36,-000.29,0000.01,0000.17,0000.13,0000.11,0000.29,15.6,22.6,,00.0,0648.7,30.9
2021-02-11T07:49:00Z,00000200,01000000,0000.81,0000.33,0000.33,-000.11,0000.32,-000.11,0000.01,-000.04,-000.12,15.6,22.6,,00.0,0648.7,30.9
2021-02-11T07:50:00Z,00000200,01000000,0000.67,0000.16,0000.13,0000.01,0000.18,-000.10,0000.37,0000.35,0000.37,15.5,22.5,,00.0,0648.7,30.9
2021-02-11T07:51:00Z,00000200,01000000,0000.56,0000.12,-000.01,0000.39,0000.07,-000.36,0000.10,0000.02,0000.25,15.5,22.5,,00.0,0648.7,30.9
2021-02-11T07:52:00Z,00000200,01000000,0000.92,0000.18,0000.26,-000.05,-000.06,0000.03,0000.36,0000.23,0000.12,15.5,22.5,,00.0,0648.7,30.9
2021-02-11T07:53:00Z,00000200,01000000,0000.69,0000.10,0000.43,0000.96,0000.18,-000.16,0000.02,0000.27,0000.31,15.6,22.5,,00.0,0648.7,30.9
2021-02-11T07:54:00Z,00000200,01000000,0000.70,0000.10,0000.13,0000.26,0000.18,-000.16,0000.46,0000.43,0000.11,15.6,22.5,,00.0,0648.7,30.9
2021-02-11T07:55:00Z,00000200,01000000,0000.54,0000.25,0000.33,0000.03,-000.07,-000.21,0000.52,0000.20,0000.21,15.7,22.6,,00.0,0648.7,30.9
2021-02-11T07:56:00Z,00000200,01000000,0000.59,0000.40,0000.34,0000.05,0000.29,0000.05,0000.06,0000.10,-000.34,15.7,22.6,,00.0,0648.7,30.9
2021-02-11T07:57:00Z,00000200,41000000,,,,,,,-000.58,-000.60,0000.27,15.8,22.7,,00.0,0648.8,30.9
2021-02-11T07:58:00Z,00000200,61000000,,,,,,,0000.01,0000.38,0000.09,15.4,22.8,,00.0,0647.8,30.9
2021-02-11T07:59:00Z,00000200,21000000,,,,,,,-000.02,-000.38,-000.51,15.4,22.9,,00.0,0647.8,30.9
